sat.trackr.live / text

‹ back to catalog

ONEWEB-0528

NORAD 54643 · 2022-166B

PAYLOAD ACTIVE UNKNOWN

§ Identity

Operator
Country
UK
Launch date
2022-12-08
Launch site
AFETR
Launch vehicle
Mass (kg)
RCS (m²)

Purposes: comms

External: N2YO · Heavens-Above · Gunter

§ Orbital elements

Epoch: 2026-05-25T00:19:29.438688Z

Period
108.94 min
Inclination
87.9253°
Eccentricity
0.0001762
Mean motion
13.21826107 rev/d
Perigee alt
1,176.4 km
Apogee alt
1,179.1 km
Semi-major
7,555.9 km
B*
-7.8870e-5
RAAN
248.6101°
Arg perigee
97.4058°
Mean anomaly
262.7276°
Rev number
16,848

§ Raw data

ONEWEB-05281 54643U 22166B   26145.01353517 -.00000020  00000+0 -78870-4 0  99992 54643  87.9253 248.6101 0001762  97.4058 262.7276 13.21826107168489

JSON: /api/v1/satellites/54643 · /tle

For live sub-satellite position, see the globe view (requires WebGL).

§ Visibility from observer

Set your observer location to see the next 7 days of passes ≥ 10°. The values pass through the URL so the page stays shareable.

No JS? Fill the form by hand. The geolocation button needs JavaScript.